Location: Krakow
(50.0830°N, 19.9170°E)
Time: 07:21:17
(UTC+02:00)

Tiros 1 despin weight - Pass Details

Date: 19 March 2026
Orbit: 555 x 592 km, 48.2° (Epoch: 18 April)

Event Time Altitude Azimuth Distance (km) Brightness Sun altitude
Rises 04:14:27 0° 237° (WSW) 2,815 - -15.3°
Reaches altitude 10° 04:16:48 10° 231° (SW) 1,914 - -14.9°
Exits shadow 04:18:22 21° 222° (SW) 1,353 ? -14.6°
Maximum altitude 04:20:58 45° 160° (SSE) 809 ? -14.2°
Drops below altitude 10° 04:25:08 10° 87° (E) 1,904 ? -13.6°
Sets 04:27:28 0° 81° (E) 2,799 ? -13.2°
